Regional Weather Roundup
Issued by NWS

Home | Current Version | Previous Version | Graphics & Text | Print | Product List | Glossary On
Versions: 1 2 3 4 5 6 7 8 9 10 11 12 13 14 15 16 17 18 19 20 21 22 23 24 25 26 27 28 29 30 31 32 33 34 35 36 37 38 39 40 41 42 43 44 45 46 47 48 49 50
234
ASUS45 KSLC 222110
RWRUT

UTAH REGIONAL WEATHER ROUNDUP
NATIONAL WEATHER SERVICE SALT LAKE CITY UT
200 PM MST WED NOV 22 2017

UTZ001>011-023>025-222200-

NORTHERN UTAH

CITY           SKY/WX    TMP DP  RH WIND       PRES   REMARKS
BRIGHAM CITY   PTSUNNY   60  38  42 CALM      30.41F
DUGWAY         PTSUNNY   66  39  37 NW3       30.39F
HILL AFB       MOSUNNY   62  39  43 CALM      30.41F
LOGAN          PTSUNNY   60  39  45 N3        30.40S
OGDEN          MOSUNNY   63  42  46 NW5       30.40F
SALT LAKE CITY PTSUNNY   67  41  38 NW3       30.40R
TOOELE VALLEY  SUNNY     57  45  62 N8        30.41S
WENDOVER       SUNNY     55  39  54 E3        30.39F
HEBER CITY       N/A     59  36  41 CALM      30.42S
WEST JORDAN    SUNNY     63  41  45 CALM      30.41S

$$

UTZ011>015-024>027-222200-

CENTRAL/NORTHEAST UTAH

CITY           SKY/WX    TMP DP  RH WIND       PRES   REMARKS
PROVO AIRPORT  MOSUNNY   56  39  53 VRB5      30.41F
MOAB/CANYONLAN SUNNY     61  29  29 CALM      30.38F
DELTA          SUNNY     63  34  34 W3        30.41F
PRICE          SUNNY     60  32  34 SE7       30.41F
RICHFIELD      SUNNY     63  37  39 NE1       30.43F
ROOSEVELT      CLOUDY    59  30  33 E5        30.42F
VERNAL         CLOUDY    56  32  40 CALM      30.41F

$$

UTZ013>016-019>022-027-222200-

SOUTHERN UTAH

CITY           SKY/WX    TMP DP  RH WIND       PRES   REMARKS
BRYCE CANYON   SUNNY     63  31  30 NE9       30.48F
CEDAR CITY     SUNNY     68  38  33 N7        30.38F
MILFORD        SUNNY     67  38  34 N13       30.38F
ST GEORGE      CLEAR     67  31  26 S5        30.29F
HANKSVILLE     SUNNY     61  21  21 CALM      30.41F
KANAB          SUNNY     72  32  23 E10       30.38F
BLANDING         N/A     63  30  28 S7        30.45F

$$

REGIONAL REPORTS     COLORADO/ARIZONA

CITY           SKY/WX    TMP DP  RH WIND       PRES   REMARKS
CRAIG, CO      CLOUDY    56  37  49 CALM      30.40F
GRAND JUNCTION SUNNY     60  33  36 VRB5      30.39F
RIFLE, CO      CLOUDY    54  34  46 CALM      30.42F
MONTROSE, CO   SUNNY     58  32  37 CALM      30.43F
CORTEZ, CO     SUNNY     63  30  28 W17       30.34F
COLORADO CITY    N/A     73  34  23 CALM      30.37F
PAGE, AZ       SUNNY     62  27  26 NE3       30.37F
GRAND CANYON   SUNNY     67  30  25 E8        30.43F
KINGMAN, AZ    SUNNY     78  30  17 N8        30.25F
FLAGSTAFF, AZ  SUNNY     64  28  25 E14G22    30.42F

$$

REGIONAL REPORTS    NEVADA/IDAHO/WYOMING

CITY           SKY/WX    TMP DP  RH WIND       PRES   REMARKS
LAS VEGAS, NV  SUNNY     77  38  24 CALM      30.22F
ELY, NY        SUNNY     68  33  27 NE7       30.42F
ELKO, NV       MOSUNNY   60  40  47 CALM      30.39F
POCATELLO, ID  CLOUDY    62  47  57 N5        30.36F
BURLEY, ID     SUNNY     66  46  48 NW3       30.32F
FORT BRIDGER,    N/A     56  42  58 W17G24    30.49R
EVANSTON, WY   CLOUDY    53  41  63 SW10      30.48S
ROCK SPRINGS,  CLOUDY    53  40  61 W20       30.42R
KEMMERER, WY   CLOUDY    50  37  62 W14G20    30.45S

$$




USA.gov is the U.S. government's official web portal to all federal, state and local government web resources and services.